TV
NORAD ID: 27820
Int'l Code: 2003-024A
Perigee: 35,780.7 km
Apogee: 35,807.4 km
Inclination: 0.0 °
Period: 1,436.1 minutes
Semi major axis: 42165 km
Launch date: June 6, 2003
Source: (SES)
Comments: Television programmers, government agencies and enterprise networks; 24 Ku-band; CONUS and Mexico.
Two Line Element Set (TLE):
1 27820U 03024A 13144.32088310 -.00000217 00000-0 00000+0 0 7859
2 27820 000.0125 026.0087 0003166 056.0796 192.5069 01.00270690 36513
Source: AFSPC
NASA's NSSDC Master Catalog entry for AMC-9 (GE-12)